Time,TemperatureF,DewpointF,PressureIn,WindDirection,WindDirectionDegrees,WindSpeedMPH,WindSpeedGustMPH,Humidity,HourlyPrecipIn,Conditions,Clouds,dailyrainin,SoftwareType,DateUTC
2013-01-07 00:03:00,31.0,29.0,30.09,NW,319,1.0,-999.0,91,-99.99,,,-99.99,,2013-01-07 05:03:00,
2013-01-07 00:12:00,31.0,29.0,30.09,NW,319,1.0,-999.0,91,-99.99,,,-99.99,,2013-01-07 05:12:00,
2013-01-07 00:22:00,31.0,29.0,30.10,NW,319,1.0,-999.0,91,-99.99,,,-99.99,,2013-01-07 05:22:00,
2013-01-07 00:33:00,31.0,29.0,30.10,NW,319,1.0,-999.0,91,-99.99,,,-99.99,,2013-01-07 05:33:00,
2013-01-07 00:42:00,31.0,29.0,30.10,NW,319,1.0,-999.0,91,-99.99,,,-99.99,,2013-01-07 05:42:00,
2013-01-07 00:52:00,31.0,29.0,30.11,NW,306,1.0,-999.0,91,-99.99,,,-99.99,,2013-01-07 05:52:00,
2013-01-07 01:02:00,30.0,28.0,30.12,WSW,237,1.0,-999.0,91,-99.99,,,-99.99,,2013-01-07 06:02:00,
2013-01-07 01:12:00,30.0,28.0,30.12,WSW,237,1.0,-999.0,91,-99.99,,,-99.99,,2013-01-07 06:12:00,
2013-01-07 01:22:00,30.0,28.0,30.13,NW,312,2.0,-999.0,91,-99.99,,,-99.99,,2013-01-07 06:22:00,
2013-01-07 01:32:00,30.0,28.0,30.14,NW,309,1.0,-999.0,91,-99.99,,,-99.99,,2013-01-07 06:32:00,
2013-01-07 01:42:00,30.0,28.0,30.14,NW,309,1.0,-999.0,91,-99.99,,,-99.99,,2013-01-07 06:42:00,
2013-01-07 01:52:00,30.0,27.0,30.14,NNW,330,2.0,-999.0,90,-99.99,,,-99.99,,2013-01-07 06:52:00,
2013-01-07 02:02:00,30.0,27.0,30.15,WSW,258,1.0,-999.0,90,-99.99,,,-99.99,,2013-01-07 07:02:00,
2013-01-07 02:12:00,30.0,27.0,30.15,WSW,258,1.0,-999.0,90,-99.99,,,-99.99,,2013-01-07 07:12:00,
2013-01-07 02:22:00,30.0,27.0,30.15,SW,219,1.0,-999.0,90,-99.99,,,-99.99,,2013-01-07 07:22:00,
2013-01-07 02:33:00,30.0,27.0,30.15,SW,236,1.0,-999.0,90,-99.99,,,-99.99,,2013-01-07 07:33:00,
2013-01-07 02:42:00,30.0,27.0,30.15,SW,236,1.0,-999.0,90,-99.99,,,-99.99,,2013-01-07 07:42:00,
2013-01-07 02:52:00,30.0,27.0,30.17,WSW,248,1.0,-999.0,90,-99.99,,,-99.99,,2013-01-07 07:52:00,
2013-01-07 03:03:00,30.0,27.0,30.18,WSW,251,1.0,-999.0,90,-99.99,,,-99.99,,2013-01-07 08:03:00,
2013-01-07 03:12:00,30.0,27.0,30.18,WSW,251,1.0,-999.0,90,-99.99,,,-99.99,,2013-01-07 08:12:00,
2013-01-07 03:22:00,30.0,27.0,30.18,West,274,1.0,-999.0,90,-99.99,,,-99.99,,2013-01-07 08:22:00,
2013-01-07 03:33:00,30.0,27.0,30.19,NW,306,3.0,-999.0,90,-99.99,,,-99.99,,2013-01-07 08:33:00,
2013-01-07 03:43:00,30.0,27.0,30.19,NW,306,3.0,-999.0,90,-99.99,,,-99.99,,2013-01-07 08:43:00,
2013-01-07 03:52:00,30.0,27.0,30.20,NNW,332,4.0,-999.0,90,-99.99,,,-99.99,,2013-01-07 08:52:00,
2013-01-07 04:02:00,30.0,27.0,30.21,North,354,5.0,-999.0,89,-99.99,,,-99.99,,2013-01-07 09:02:00,
2013-01-07 04:12:00,30.0,27.0,30.21,North,354,5.0,-999.0,89,-99.99,,,-99.99,,2013-01-07 09:12:00,
2013-01-07 04:23:00,29.0,26.0,30.21,North,359,2.0,-999.0,88,-99.99,,,-99.99,,2013-01-07 09:23:00,
2013-01-07 04:32:00,29.0,26.0,30.22,North,0,1.0,-999.0,87,-99.99,,,-99.99,,2013-01-07 09:32:00,
2013-01-07 04:42:00,29.0,26.0,30.22,North,0,1.0,-999.0,87,-99.99,,,-99.99,,2013-01-07 09:42:00,
2013-01-07 04:52:00,29.0,25.0,30.22,North,349,2.0,-999.0,86,-99.99,,,-99.99,,2013-01-07 09:52:00,
2013-01-07 05:02:00,29.0,25.0,30.23,NNW,340,2.0,-999.0,86,-99.99,,,-99.99,,2013-01-07 10:02:00,
2013-01-07 05:12:00,29.0,25.0,30.23,NNW,340,2.0,-999.0,86,-99.99,,,-99.99,,2013-01-07 10:12:00,
2013-01-07 05:22:00,29.0,25.0,30.24,NNW,346,1.0,-999.0,86,-99.99,,,-99.99,,2013-01-07 10:22:00,
2013-01-07 05:32:00,28.0,24.0,30.24,NW,305,1.0,-999.0,85,-99.99,,,-99.99,,2013-01-07 10:32:00,
2013-01-07 05:42:00,28.0,24.0,30.24,NW,305,1.0,-999.0,85,-99.99,,,-99.99,,2013-01-07 10:42:00,
2013-01-07 05:52:00,28.0,24.0,30.24,NNW,342,0.0,-999.0,85,-99.99,,,-99.99,,2013-01-07 10:52:00,
2013-01-07 06:02:00,28.0,24.0,30.25,NNW,344,0.0,-999.0,85,-99.99,,,-99.99,,2013-01-07 11:02:00,
2013-01-07 06:12:00,28.0,24.0,30.25,NNW,344,0.0,-999.0,85,-99.99,,,-99.99,,2013-01-07 11:12:00,
2013-01-07 06:23:00,28.0,24.0,30.25,North,350,0.0,-999.0,85,-99.99,,,-99.99,,2013-01-07 11:23:00,
2013-01-07 06:33:00,28.0,24.0,30.25,North,350,0.0,-999.0,85,-99.99,,,-99.99,,2013-01-07 11:33:00,
2013-01-07 06:43:00,28.0,24.0,30.25,North,350,0.0,-999.0,85,-99.99,,,-99.99,,2013-01-07 11:43:00,
2013-01-07 06:53:00,27.0,23.0,30.27,NNW,340,0.0,-999.0,84,-99.99,,,-99.99,,2013-01-07 11:53:00,
2013-01-07 07:03:00,27.0,23.0,30.28,NNW,342,0.0,-999.0,85,-99.99,,,-99.99,,2013-01-07 12:03:00,
2013-01-07 07:12:00,27.0,23.0,30.28,NNW,342,0.0,-999.0,85,-99.99,,,-99.99,,2013-01-07 12:12:00,
2013-01-07 07:23:00,27.0,23.0,30.29,North,350,0.0,-999.0,85,-99.99,,,-99.99,,2013-01-07 12:23:00,
2013-01-07 07:33:00,27.0,23.0,30.29,North,350,0.0,-999.0,85,-99.99,,,-99.99,,2013-01-07 12:33:00,
2013-01-07 07:43:00,27.0,23.0,30.29,North,350,0.0,-999.0,85,-99.99,,,-99.99,,2013-01-07 12:43:00,
2013-01-07 07:52:00,27.0,23.0,30.29,North,350,0.0,-999.0,84,-99.99,,,-99.99,,2013-01-07 12:52:00,
2013-01-07 08:03:00,26.0,22.0,30.30,North,350,0.0,-999.0,84,-99.99,,,-99.99,,2013-01-07 13:03:00,
2013-01-07 08:12:00,26.0,22.0,30.30,North,350,0.0,-999.0,84,-99.99,,,-99.99,,2013-01-07 13:12:00,
2013-01-07 08:23:00,26.0,22.0,30.30,North,350,0.0,-999.0,84,-99.99,,,-99.99,,2013-01-07 13:23:00,
2013-01-07 08:33:00,26.0,22.0,30.31,North,350,0.0,-999.0,84,-99.99,,,-99.99,,2013-01-07 13:33:00,
2013-01-07 08:43:00,26.0,22.0,30.31,North,350,0.0,-999.0,84,-99.99,,,-99.99,,2013-01-07 13:43:00,
2013-01-07 08:52:00,26.0,22.0,30.32,North,350,0.0,-999.0,84,-99.99,,,-99.99,,2013-01-07 13:52:00,
2013-01-07 09:03:00,26.0,22.0,30.32,North,350,0.0,-999.0,84,-99.99,,,-99.99,,2013-01-07 14:03:00,
2013-01-07 09:13:00,26.0,22.0,30.32,North,350,0.0,-999.0,84,-99.99,,,-99.99,,2013-01-07 14:13:00,
2013-01-07 09:23:00,27.0,23.0,30.33,North,350,0.0,-999.0,83,-99.99,,,-99.99,,2013-01-07 14:23:00,
2013-01-07 09:33:00,27.0,23.0,30.33,North,350,0.0,-999.0,83,-99.99,,,-99.99,,2013-01-07 14:33:00,
2013-01-07 09:43:00,27.0,23.0,30.33,North,350,0.0,-999.0,83,-99.99,,,-99.99,,2013-01-07 14:43:00,
2013-01-07 09:53:00,27.0,23.0,30.33,North,350,0.0,-999.0,83,-99.99,,,-99.99,,2013-01-07 14:53:00,
2013-01-07 10:03:00,27.0,23.0,30.33,North,350,0.0,-999.0,83,-99.99,,,-99.99,,2013-01-07 15:03:00,
2013-01-07 10:23:00,28.0,23.0,30.35,South,189,0.0,-999.0,82,-99.99,,,-99.99,,2013-01-07 15:23:00,
2013-01-07 10:33:00,28.0,23.0,30.36,South,179,1.0,-999.0,82,-99.99,,,-99.99,,2013-01-07 15:33:00,
2013-01-07 10:43:00,28.0,23.0,30.36,South,179,1.0,-999.0,82,-99.99,,,-99.99,,2013-01-07 15:43:00,
2013-01-07 10:53:00,28.0,23.0,30.35,SSE,148,1.0,-999.0,81,-99.99,,,-99.99,,2013-01-07 15:53:00,
2013-01-07 11:03:00,29.0,24.0,30.36,South,172,0.0,-999.0,80,-99.99,,,-99.99,,2013-01-07 16:03:00,
2013-01-07 11:12:00,29.0,24.0,30.36,South,172,0.0,-999.0,80,-99.99,,,-99.99,,2013-01-07 16:12:00,
2013-01-07 11:23:00,29.0,24.0,30.37,SSW,196,1.0,-999.0,80,-99.99,,,-99.99,,2013-01-07 16:23:00,
2013-01-07 11:33:00,29.0,24.0,30.37,SSW,193,1.0,-999.0,81,-99.99,,,-99.99,,2013-01-07 16:33:00,
2013-01-07 11:43:00,29.0,24.0,30.37,SSW,193,1.0,-999.0,81,-99.99,,,-99.99,,2013-01-07 16:43:00,
2013-01-07 11:53:00,29.0,24.0,30.36,SSE,167,2.0,-999.0,82,-99.99,,,-99.99,,2013-01-07 16:53:00,
2013-01-07 12:03:00,30.0,25.0,30.36,SSE,158,1.0,-999.0,83,-99.99,,,-99.99,,2013-01-07 17:03:00,
2013-01-07 12:12:00,30.0,25.0,30.36,SSE,158,1.0,-999.0,83,-99.99,,,-99.99,,2013-01-07 17:12:00,
2013-01-07 12:23:00,30.0,25.0,30.35,SSW,213,1.0,-999.0,83,-99.99,,,-99.99,,2013-01-07 17:23:00,
2013-01-07 12:33:00,30.0,25.0,30.34,SW,224,2.0,-999.0,83,-99.99,,,-99.99,,2013-01-07 17:33:00,
2013-01-07 12:42:00,30.0,25.0,30.34,SW,224,2.0,-999.0,83,-99.99,,,-99.99,,2013-01-07 17:42:00,
2013-01-07 12:53:00,30.0,25.0,30.33,SW,232,2.0,-999.0,83,-99.99,,,-99.99,,2013-01-07 17:53:00,
2013-01-07 13:03:00,30.0,25.0,30.33,SW,232,2.0,-999.0,83,-99.99,,,-99.99,,2013-01-07 18:03:00,
2013-01-07 13:13:00,30.0,25.0,30.33,SW,232,2.0,-999.0,83,-99.99,,,-99.99,,2013-01-07 18:13:00,
2013-01-07 13:23:00,31.0,26.0,30.32,South,174,3.0,-999.0,83,-99.99,,,-99.99,,2013-01-07 18:23:00,
2013-01-07 13:33:00,31.0,25.0,30.32,SSW,199,3.0,-999.0,79,-99.99,,,-99.99,,2013-01-07 18:33:00,
2013-01-07 13:43:00,31.0,25.0,30.32,SSW,199,3.0,-999.0,79,-99.99,,,-99.99,,2013-01-07 18:43:00,
2013-01-07 13:52:00,31.0,24.0,30.30,South,186,5.0,-999.0,75,-99.99,,,-99.99,,2013-01-07 18:52:00,
2013-01-07 14:03:00,31.0,24.0,30.30,South,186,5.0,-999.0,75,-99.99,,,-99.99,,2013-01-07 19:03:00,
2013-01-07 14:12:00,31.0,24.0,30.30,South,186,5.0,-999.0,75,-99.99,,,-99.99,,2013-01-07 19:12:00,
2013-01-07 14:23:00,31.0,23.0,30.29,SSW,205,6.0,-999.0,72,-99.99,,,-99.99,,2013-01-07 19:23:00,
2013-01-07 14:33:00,31.0,23.0,30.29,SSW,210,3.0,-999.0,72,-99.99,,,-99.99,,2013-01-07 19:33:00,
2013-01-07 14:43:00,31.0,23.0,30.29,SSW,210,3.0,-999.0,72,-99.99,,,-99.99,,2013-01-07 19:43:00,
2013-01-07 14:53:00,31.0,23.0,30.29,SSW,208,5.0,-999.0,72,-99.99,,,-99.99,,2013-01-07 19:53:00,
2013-01-07 15:03:00,32.0,24.0,30.29,SW,226,2.0,-999.0,72,-99.99,,,-99.99,,2013-01-07 20:03:00,
2013-01-07 15:13:00,32.0,24.0,30.29,SW,226,2.0,-999.0,72,-99.99,,,-99.99,,2013-01-07 20:13:00,
2013-01-07 15:23:00,32.0,24.0,30.29,WSW,241,5.0,-999.0,71,-99.99,,,-99.99,,2013-01-07 20:23:00,
2013-01-07 15:33:00,32.0,24.0,30.29,SSW,198,4.0,-999.0,71,-99.99,,,-99.99,,2013-01-07 20:33:00,
2013-01-07 15:43:00,32.0,24.0,30.29,SSW,198,4.0,-999.0,71,-99.99,,,-99.99,,2013-01-07 20:43:00,
2013-01-07 15:52:00,32.0,24.0,30.29,SSW,198,4.0,-999.0,71,-99.99,,,-99.99,,2013-01-07 20:52:00,
2013-01-07 16:03:00,32.0,23.0,30.29,SSE,155,2.0,-999.0,68,-99.99,,,-99.99,,2013-01-07 21:03:00,
2013-01-07 16:12:00,32.0,23.0,30.29,SSE,155,2.0,-999.0,68,-99.99,,,-99.99,,2013-01-07 21:12:00,
2013-01-07 16:23:00,33.0,23.0,30.29,SSW,192,4.0,-999.0,67,-99.99,,,-99.99,,2013-01-07 21:23:00,
2013-01-07 16:33:00,32.0,22.0,30.27,SW,222,5.0,-999.0,67,-99.99,,,-99.99,,2013-01-07 21:33:00,
2013-01-07 16:43:00,32.0,22.0,30.27,SW,222,5.0,-999.0,67,-99.99,,,-99.99,,2013-01-07 21:43:00,
2013-01-07 16:53:00,31.0,22.0,30.27,South,181,2.0,-999.0,68,-99.99,,,-99.99,,2013-01-07 21:53:00,
2013-01-07 17:03:00,31.0,22.0,30.26,SW,215,4.0,-999.0,69,-99.99,,,-99.99,,2013-01-07 22:03:00,
2013-01-07 17:12:00,31.0,22.0,30.26,SW,215,4.0,-999.0,69,-99.99,,,-99.99,,2013-01-07 22:12:00,
2013-01-07 17:23:00,30.0,22.0,30.26,SSW,192,1.0,-999.0,71,-99.99,,,-99.99,,2013-01-07 22:23:00,
2013-01-07 17:33:00,30.0,22.0,30.26,South,179,3.0,-999.0,71,-99.99,,,-99.99,,2013-01-07 22:33:00,
2013-01-07 17:43:00,30.0,22.0,30.26,South,179,3.0,-999.0,71,-99.99,,,-99.99,,2013-01-07 22:43:00,
2013-01-07 17:53:00,29.0,21.0,30.26,SSE,160,2.0,-999.0,72,-99.99,,,-99.99,,2013-01-07 22:53:00,
2013-01-07 18:03:00,29.0,21.0,30.26,SSW,195,1.0,-999.0,73,-99.99,,,-99.99,,2013-01-07 23:03:00,
2013-01-07 18:12:00,29.0,21.0,30.26,SSW,195,1.0,-999.0,73,-99.99,,,-99.99,,2013-01-07 23:12:00,
2013-01-07 18:23:00,28.0,21.0,30.27,South,174,2.0,-999.0,75,-99.99,,,-99.99,,2013-01-07 23:23:00,
2013-01-07 18:33:00,28.0,21.0,30.27,SSE,165,2.0,-999.0,75,-99.99,,,-99.99,,2013-01-07 23:33:00,
2013-01-07 18:43:00,28.0,21.0,30.27,SSE,165,2.0,-999.0,75,-99.99,,,-99.99,,2013-01-07 23:43:00,
2013-01-07 18:53:00,28.0,21.0,30.26,South,176,3.0,-999.0,75,-99.99,,,-99.99,,2013-01-07 23:53:00,
2013-01-07 19:03:00,28.0,21.0,30.26,South,176,3.0,-999.0,75,-99.99,,,-99.99,,2013-01-08 00:03:00,
2013-01-07 19:12:00,28.0,21.0,30.26,South,176,3.0,-999.0,75,-99.99,,,-99.99,,2013-01-08 00:12:00,
2013-01-07 19:23:00,28.0,21.0,30.26,SW,223,7.0,-999.0,75,-99.99,,,-99.99,,2013-01-08 00:23:00,
2013-01-07 19:33:00,28.0,21.0,30.25,South,191,5.0,-999.0,75,-99.99,,,-99.99,,2013-01-08 00:33:00,
2013-01-07 19:42:00,28.0,21.0,30.25,South,191,5.0,-999.0,75,-99.99,,,-99.99,,2013-01-08 00:42:00,
2013-01-07 19:52:00,28.0,21.0,30.25,SSE,155,4.0,-999.0,76,-99.99,,,-99.99,,2013-01-08 00:52:00,
2013-01-07 20:03:00,28.0,21.0,30.25,WSW,243,4.0,-999.0,76,-99.99,,,-99.99,,2013-01-08 01:03:00,
2013-01-07 20:12:00,28.0,21.0,30.25,WSW,243,4.0,-999.0,76,-99.99,,,-99.99,,2013-01-08 01:12:00,
2013-01-07 20:22:00,27.0,21.0,30.26,South,172,3.0,-999.0,77,-99.99,,,-99.99,,2013-01-08 01:22:00,
2013-01-07 20:33:00,27.0,21.0,30.26,SE,140,4.0,-999.0,78,-99.99,,,-99.99,,2013-01-08 01:33:00,
2013-01-07 20:42:00,27.0,21.0,30.26,SE,140,4.0,-999.0,78,-99.99,,,-99.99,,2013-01-08 01:42:00,
2013-01-07 20:52:00,27.0,21.0,30.25,SSW,205,4.0,-999.0,78,-99.99,,,-99.99,,2013-01-08 01:52:00,
2013-01-07 21:02:00,27.0,21.0,30.25,South,189,3.0,-999.0,78,-99.99,,,-99.99,,2013-01-08 02:02:00,
2013-01-07 21:12:00,27.0,21.0,30.25,South,189,3.0,-999.0,78,-99.99,,,-99.99,,2013-01-08 02:12:00,
2013-01-07 21:22:00,26.0,20.0,30.24,SSW,209,4.0,-999.0,78,-99.99,,,-99.99,,2013-01-08 02:22:00,
2013-01-07 21:33:00,26.0,20.0,30.24,SW,222,4.0,-999.0,78,-99.99,,,-99.99,,2013-01-08 02:33:00,
2013-01-07 21:42:00,26.0,20.0,30.24,SW,222,4.0,-999.0,78,-99.99,,,-99.99,,2013-01-08 02:42:00,
2013-01-07 21:53:00,26.0,20.0,30.24,SSE,160,4.0,-999.0,79,-99.99,,,-99.99,,2013-01-08 02:53:00,
2013-01-07 22:03:00,26.0,20.0,30.23,SSW,199,4.0,-999.0,79,-99.99,,,-99.99,,2013-01-08 03:03:00,
2013-01-07 22:12:00,26.0,20.0,30.23,SSW,199,4.0,-999.0,79,-99.99,,,-99.99,,2013-01-08 03:12:00,
2013-01-07 22:22:00,26.0,20.0,30.23,WSW,237,4.0,-999.0,79,-99.99,,,-99.99,,2013-01-08 03:22:00,
2013-01-07 22:33:00,26.0,21.0,30.23,SSE,162,3.0,-999.0,80,-99.99,,,-99.99,,2013-01-08 03:33:00,
2013-01-07 22:43:00,26.0,21.0,30.23,SSE,162,3.0,-999.0,80,-99.99,,,-99.99,,2013-01-08 03:43:00,
2013-01-07 22:53:00,26.0,21.0,30.22,SSE,155,3.0,-999.0,80,-99.99,,,-99.99,,2013-01-08 03:53:00,
2013-01-07 23:02:00,26.0,21.0,30.22,SW,216,5.0,-999.0,80,-99.99,,,-99.99,,2013-01-08 04:02:00,
2013-01-07 23:12:00,26.0,21.0,30.22,SW,216,5.0,-999.0,80,-99.99,,,-99.99,,2013-01-08 04:12:00,
2013-01-07 23:22:00,26.0,21.0,30.22,SSW,209,3.0,-999.0,80,-99.99,,,-99.99,,2013-01-08 04:22:00,
2013-01-07 23:32:00,25.0,20.0,30.21,SSE,168,2.0,-999.0,80,-99.99,,,-99.99,,2013-01-08 04:32:00,
2013-01-07 23:43:00,25.0,20.0,30.21,SSE,168,2.0,-999.0,80,-99.99,,,-99.99,,2013-01-08 04:43:00,
2013-01-07 23:52:00,25.0,20.0,30.21,SSW,200,1.0,-999.0,81,-99.99,,,-99.99,,2013-01-08 04:52:00,